29.03.2024;05:50;97,956;
29.03.2024;05:35;97,954;
29.03.2024;05:20;97,955;
29.03.2024;05:05;97,954;
29.03.2024;04:50;97,955;
29.03.2024;04:35;97,954;
29.03.2024;04:20;97,955;
29.03.2024;04:05;97,955;
29.03.2024;03:50;97,954;
29.03.2024;03:35;97,956;
29.03.2024;03:20;97,954;
29.03.2024;03:05;97,955;
29.03.2024;02:50;97,955;
29.03.2024;02:35;97,955;
29.03.2024;02:20;97,955;
29.03.2024;02:05;97,954;
29.03.2024;01:50;97,954;
29.03.2024;01:35;97,955;
29.03.2024;01:20;97,954;
29.03.2024;01:05;97,955;
29.03.2024;00:50;97,954;
29.03.2024;00:35;97,954;
29.03.2024;00:20;97,954;
29.03.2024;00:05;97,954;
28.03.2024;23:50;97,954;
28.03.2024;23:35;97,953;
28.03.2024;23:20;97,953;
28.03.2024;23:05;97,953;
28.03.2024;22:50;97,953;
28.03.2024;22:35;97,953;
28.03.2024;22:20;97,952;
28.03.2024;22:05;97,951;
28.03.2024;21:50;97,952;
28.03.2024;21:35;97,951;
28.03.2024;21:20;97,951;
28.03.2024;21:05;97,951;
28.03.2024;20:50;97,950;
28.03.2024;20:35;97,951;
28.03.2024;20:20;97,950;
28.03.2024;20:05;97,950;
28.03.2024;19:50;97,950;
28.03.2024;19:35;97,950;
28.03.2024;19:20;97,950;
28.03.2024;19:05;97,950;
28.03.2024;18:50;97,951;
28.03.2024;18:35;97,950;
28.03.2024;18:20;97,950;
28.03.2024;18:05;97,949;
28.03.2024;17:50;97,950;
28.03.2024;17:35;97,950;
28.03.2024;17:20;97,950;
28.03.2024;17:05;97,950;
28.03.2024;16:50;97,949;
28.03.2024;16:35;97,949;
28.03.2024;16:20;97,950;
28.03.2024;16:05;97,948;
28.03.2024;15:50;97,950;
28.03.2024;15:35;97,950;
28.03.2024;15:20;97,950;
28.03.2024;15:05;97,950;
28.03.2024;14:50;97,950;
28.03.2024;14:35;97,951;
28.03.2024;14:20;97,950;
28.03.2024;14:05;97,950;
28.03.2024;13:50;97,950;
28.03.2024;13:35;97,950;
28.03.2024;13:20;97,951;
28.03.2024;13:05;97,949;
28.03.2024;12:50;97,950;
28.03.2024;12:35;97,950;
28.03.2024;12:20;97,950;
28.03.2024;12:05;97,951;
28.03.2024;11:50;97,951;
28.03.2024;11:35;97,951;
28.03.2024;11:20;97,951;
28.03.2024;11:05;97,950;
28.03.2024;10:50;97,951;
28.03.2024;10:35;97,951;
28.03.2024;10:20;97,951;
28.03.2024;10:05;97,952;
28.03.2024;09:50;97,951;
28.03.2024;09:35;97,953;
28.03.2024;09:20;97,951;
28.03.2024;09:05;97,952;
28.03.2024;08:50;97,952;
28.03.2024;08:35;97,952;
28.03.2024;08:20;97,953;
28.03.2024;08:05;97,953;
28.03.2024;07:50;97,953;
28.03.2024;07:35;97,952;
28.03.2024;07:20;97,953;
28.03.2024;07:05;97,952;
28.03.2024;06:50;97,953;
28.03.2024;06:35;97,954;
28.03.2024;06:20;97,953;
28.03.2024;06:05;97,954;
28.03.2024;05:50;97,953;
28.03.2024;05:35;97,953;
28.03.2024;05:20;97,953;
28.03.2024;05:05;97,953;
28.03.2024;04:50;97,954;
28.03.2024;04:35;97,954;
28.03.2024;04:20;97,956;
28.03.2024;04:05;97,954;
28.03.2024;03:50;97,955;
28.03.2024;03:35;97,955;
28.03.2024;03:20;97,954;
28.03.2024;03:05;97,955;
28.03.2024;02:50;97,954;
28.03.2024;02:35;97,956;
28.03.2024;02:20;97,954;
28.03.2024;02:05;97,955;
28.03.2024;01:50;97,956;
28.03.2024;01:35;97,955;
28.03.2024;01:20;97,955;
28.03.2024;01:05;97,955;
28.03.2024;00:50;97,955;
28.03.2024;00:35;97,955;
28.03.2024;00:20;97,956;
28.03.2024;00:05;97,956;
27.03.2024;23:50;97,956;
27.03.2024;23:35;97,956;
27.03.2024;23:20;97,955;
27.03.2024;23:05;97,955;
27.03.2024;22:50;97,955;
27.03.2024;22:35;97,955;
27.03.2024;22:20;97,955;
27.03.2024;22:05;97,955;
27.03.2024;21:50;97,955;
27.03.2024;21:35;97,954;
27.03.2024;21:20;97,955;
27.03.2024;21:05;97,955;
27.03.2024;20:50;97,954;
27.03.2024;20:35;97,954;
27.03.2024;20:20;97,954;
27.03.2024;20:05;97,955;
27.03.2024;19:50;97,954;
27.03.2024;19:35;97,954;
27.03.2024;19:20;97,954;
27.03.2024;19:05;97,954;
27.03.2024;18:50;97,955;
27.03.2024;18:34;97,953;
27.03.2024;18:19;97,954;
27.03.2024;18:04;97,953;
27.03.2024;17:49;97,954;
27.03.2024;17:34;97,953;
27.03.2024;17:19;97,954;
27.03.2024;17:04;97,953;
27.03.2024;16:49;97,953;
27.03.2024;16:34;97,954;
27.03.2024;16:19;97,954;
27.03.2024;16:04;97,954;
27.03.2024;15:49;97,954;
27.03.2024;15:34;97,954;
27.03.2024;15:19;97,953;
27.03.2024;15:04;97,953;
27.03.2024;14:49;97,954;
27.03.2024;14:34;97,954;
27.03.2024;14:19;97,954;
27.03.2024;14:04;97,955;
27.03.2024;13:49;97,955;
27.03.2024;13:34;97,954;
27.03.2024;13:19;97,953;
27.03.2024;13:04;97,954;
27.03.2024;12:49;97,954;
27.03.2024;12:34;97,954;
27.03.2024;12:19;97,956;
27.03.2024;12:04;97,953;
27.03.2024;11:49;97,955;
27.03.2024;11:34;97,955;
27.03.2024;11:19;97,954;
27.03.2024;11:04;97,955;
27.03.2024;10:49;97,954;
27.03.2024;10:34;97,956;
27.03.2024;10:19;97,954;
27.03.2024;10:04;97,956;
27.03.2024;09:49;97,957;
27.03.2024;09:34;97,955;
27.03.2024;09:19;97,958;
27.03.2024;09:04;97,955;
27.03.2024;08:49;97,957;
27.03.2024;08:34;97,956;
27.03.2024;08:19;97,956;
27.03.2024;08:04;97,959;
27.03.2024;07:49;97,956;
27.03.2024;07:34;97,958;
27.03.2024;07:19;97,958;
27.03.2024;07:04;97,958;
27.03.2024;06:49;97,958;
27.03.2024;06:34;97,958;
27.03.2024;06:19;97,958;
27.03.2024;06:04;97,958;
27.03.2024;05:49;97,959;
27.03.2024;05:34;97,958;
27.03.2024;05:19;97,959;
27.03.2024;05:04;97,959;
27.03.2024;04:49;97,958;
27.03.2024;04:34;97,959;
27.03.2024;04:19;97,958;
27.03.2024;04:04;97,959;
27.03.2024;03:49;97,959;
27.03.2024;03:34;97,959;
27.03.2024;03:19;97,959;
27.03.2024;03:04;97,959;
27.03.2024;02:49;97,959;
27.03.2024;02:34;97,959;
27.03.2024;02:19;97,959;
27.03.2024;02:04;97,959;
27.03.2024;01:49;97,959;
27.03.2024;01:34;97,959;
27.03.2024;01:19;97,959;
27.03.2024;01:04;97,959;
27.03.2024;00:49;97,959;
27.03.2024;00:34;97,959;
27.03.2024;00:19;97,959;
27.03.2024;00:04;97,959;
26.03.2024;23:49;97,958;
26.03.2024;23:34;97,958;
26.03.2024;23:19;97,959;
26.03.2024;23:04;97,958;
26.03.2024;22:49;97,959;
26.03.2024;22:34;97,958;
26.03.2024;22:19;97,958;
26.03.2024;22:04;97,958;
26.03.2024;21:49;97,957;
26.03.2024;21:34;97,958;
26.03.2024;21:19;97,957;
26.03.2024;21:04;97,958;
26.03.2024;20:49;97,958;
26.03.2024;20:34;97,957;
26.03.2024;20:19;97,957;
26.03.2024;20:04;97,956;
26.03.2024;19:49;97,956;
26.03.2024;19:34;97,956;
26.03.2024;19:19;97,956;
26.03.2024;19:04;97,956;
26.03.2024;18:49;97,956;
26.03.2024;18:34;97,956;
26.03.2024;18:19;97,956;
26.03.2024;18:04;97,956;
26.03.2024;17:49;97,956;
26.03.2024;17:34;97,956;
26.03.2024;17:19;97,956;
26.03.2024;17:04;97,956;
26.03.2024;16:49;97,955;
26.03.2024;16:34;97,956;
26.03.2024;16:19;97,957;
26.03.2024;16:04;97,956;
26.03.2024;15:49;97,956;
26.03.2024;15:34;97,956;
26.03.2024;15:19;97,957;
26.03.2024;15:04;97,957;
26.03.2024;14:49;97,956;
26.03.2024;14:34;97,956;
26.03.2024;14:19;97,957;
26.03.2024;14:04;97,957;
26.03.2024;13:49;97,957;
26.03.2024;13:34;97,957;
26.03.2024;13:19;97,957;
26.03.2024;13:04;97,957;
26.03.2024;12:49;97,956;
26.03.2024;12:34;97,957;
26.03.2024;12:19;97,957;
26.03.2024;12:04;97,957;
26.03.2024;11:49;97,956;
26.03.2024;11:34;97,956;
26.03.2024;11:19;97,957;
26.03.2024;11:04;97,956;
26.03.2024;10:49;97,957;
26.03.2024;10:34;97,957;
26.03.2024;10:19;97,957;
26.03.2024;10:04;97,958;
26.03.2024;09:49;97,957;
26.03.2024;09:34;97,957;
26.03.2024;09:19;97,957;
26.03.2024;09:04;97,957;
26.03.2024;08:49;97,957;
26.03.2024;08:34;97,957;
26.03.2024;08:19;97,957;
26.03.2024;08:04;97,957;
26.03.2024;07:49;97,958;
26.03.2024;07:34;97,957;
26.03.2024;07:19;97,957;
26.03.2024;07:04;97,958;
26.03.2024;06:49;97,957;
26.03.2024;06:34;97,958;
26.03.2024;06:19;97,958;
26.03.2024;06:04;97,958;
26.03.2024;05:49;97,958;
26.03.2024;05:34;97,958;
26.03.2024;05:19;97,959;
26.03.2024;05:04;97,958;
26.03.2024;04:49;97,959;
26.03.2024;04:34;97,959;
26.03.2024;04:19;97,959;
26.03.2024;04:04;97,959;
26.03.2024;03:49;97,958;
26.03.2024;03:34;97,960;
26.03.2024;03:19;97,959;
26.03.2024;03:04;97,959;
26.03.2024;02:49;97,959;
26.03.2024;02:34;97,959;
26.03.2024;02:19;97,960;
26.03.2024;02:04;97,959;
26.03.2024;01:49;97,960;
26.03.2024;01:34;97,959;
26.03.2024;01:19;97,959;
26.03.2024;01:04;97,959;
26.03.2024;00:49;97,959;
26.03.2024;00:34;97,960;
26.03.2024;00:19;97,959;
26.03.2024;00:04;97,959;
25.03.2024;23:49;97,960;
25.03.2024;23:34;97,958;
25.03.2024;23:19;97,959;
25.03.2024;23:04;97,959;
25.03.2024;22:49;97,958;
25.03.2024;22:34;97,958;
25.03.2024;22:19;97,958;
25.03.2024;22:04;97,959;
25.03.2024;21:49;97,957;
25.03.2024;21:34;97,958;
25.03.2024;21:19;97,957;
25.03.2024;21:04;97,958;
25.03.2024;20:49;97,957;
25.03.2024;20:34;97,957;
25.03.2024;20:19;97,958;
25.03.2024;20:04;97,956;
25.03.2024;19:49;97,958;
25.03.2024;19:34;97,956;
25.03.2024;19:19;97,956;
25.03.2024;19:04;97,957;
25.03.2024;18:49;97,956;
25.03.2024;18:34;97,957;
25.03.2024;18:19;97,955;
25.03.2024;18:04;97,957;
25.03.2024;17:49;97,956;
25.03.2024;17:34;97,956;
25.03.2024;17:19;97,957;
25.03.2024;17:04;97,955;
25.03.2024;16:49;97,957;
25.03.2024;16:34;97,956;
25.03.2024;16:19;97,956;
25.03.2024;16:04;97,956;
25.03.2024;15:49;97,955;
25.03.2024;15:34;97,956;
25.03.2024;15:19;97,956;
25.03.2024;15:04;97,957;
25.03.2024;14:49;97,956;
25.03.2024;14:34;97,956;
25.03.2024;14:19;97,956;
25.03.2024;14:04;97,956;
25.03.2024;13:49;97,957;
25.03.2024;13:34;97,956;
25.03.2024;13:19;97,957;
25.03.2024;13:04;97,956;
25.03.2024;12:49;97,957;
25.03.2024;12:34;97,957;
25.03.2024;12:19;97,956;
25.03.2024;12:04;97,957;
25.03.2024;11:49;97,957;
25.03.2024;11:34;97,957;
25.03.2024;11:19;97,957;
25.03.2024;11:04;97,957;
25.03.2024;10:49;97,958;
25.03.2024;10:34;97,957;
25.03.2024;10:19;97,958;
25.03.2024;10:04;97,958;
25.03.2024;09:49;97,958;
25.03.2024;09:34;97,957;
25.03.2024;09:19;97,958;
25.03.2024;09:04;97,958;
25.03.2024;08:49;97,958;
25.03.2024;08:34;97,958;
25.03.2024;08:19;97,959;
25.03.2024;08:04;97,958;
25.03.2024;07:49;97,959;
25.03.2024;07:34;97,959;
25.03.2024;07:19;97,959;
25.03.2024;07:04;97,959;
25.03.2024;06:49;97,959;
25.03.2024;06:34;97,960;
25.03.2024;06:19;97,959;
25.03.2024;06:04;97,960;
25.03.2024;05:49;97,960;
25.03.2024;05:34;97,959;
25.03.2024;05:19;97,960;
25.03.2024;05:04;97,960;
25.03.2024;04:49;97,961;
25.03.2024;04:34;97,960;
25.03.2024;04:19;97,961;
25.03.2024;04:04;97,961;
25.03.2024;03:49;97,960;
25.03.2024;03:34;97,961;
25.03.2024;03:19;97,961;
25.03.2024;03:04;97,961;
25.03.2024;02:49;97,961;
25.03.2024;02:34;97,961;
25.03.2024;02:19;97,961;
25.03.2024;02:04;97,960;
25.03.2024;01:49;97,962;
25.03.2024;01:34;97,961;
25.03.2024;01:19;97,961;
25.03.2024;01:04;97,961;
25.03.2024;00:49;97,960;
25.03.2024;00:34;97,961;
25.03.2024;00:19;97,960;
25.03.2024;00:04;97,961;
24.03.2024;23:49;97,961;
24.03.2024;23:34;97,961;
24.03.2024;23:19;97,961;
24.03.2024;23:04;97,960;
24.03.2024;22:49;97,960;
24.03.2024;22:34;97,960;
24.03.2024;22:19;97,960;
24.03.2024;22:04;97,960;
24.03.2024;21:49;97,960;
24.03.2024;21:34;97,959;
24.03.2024;21:19;97,959;
24.03.2024;21:04;97,959;
24.03.2024;20:49;97,958;
24.03.2024;20:34;97,959;
24.03.2024;20:19;97,959;
24.03.2024;20:04;97,959;
24.03.2024;19:49;97,959;
24.03.2024;19:34;97,959;
24.03.2024;19:19;97,959;
24.03.2024;19:04;97,958;
24.03.2024;18:49;97,959;
24.03.2024;18:34;97,958;
24.03.2024;18:19;97,958;
24.03.2024;18:04;97,958;
24.03.2024;17:49;97,957;
24.03.2024;17:34;97,958;
24.03.2024;17:19;97,957;
24.03.2024;17:04;97,958;
24.03.2024;16:49;97,958;
24.03.2024;16:34;97,958;
24.03.2024;16:19;97,958;
24.03.2024;16:04;97,957;
24.03.2024;15:49;97,957;
24.03.2024;15:34;97,957;
24.03.2024;15:19;97,957;
24.03.2024;15:04;97,957;
24.03.2024;14:49;97,957;
24.03.2024;14:34;97,957;
24.03.2024;14:19;97,957;
24.03.2024;14:04;97,957;
24.03.2024;13:49;97,957;
24.03.2024;13:34;97,958;
24.03.2024;13:19;97,957;
24.03.2024;13:04;97,957;
24.03.2024;12:49;97,957;
24.03.2024;12:34;97,957;
24.03.2024;12:19;97,958;
24.03.2024;12:04;97,957;
24.03.2024;11:49;97,958;
24.03.2024;11:34;97,957;
24.03.2024;11:19;97,957;
24.03.2024;11:04;97,957;
24.03.2024;10:49;97,957;
24.03.2024;10:34;97,958;
24.03.2024;10:19;97,958;
24.03.2024;10:04;97,957;
24.03.2024;09:49;97,958;
24.03.2024;09:34;97,958;
24.03.2024;09:19;97,958;
24.03.2024;09:04;97,958;
24.03.2024;08:49;97,958;
24.03.2024;08:34;97,958;
24.03.2024;08:19;97,959;
24.03.2024;08:04;97,959;
24.03.2024;07:49;97,958;
24.03.2024;07:34;97,959;
24.03.2024;07:19;97,958;
24.03.2024;07:04;97,959;
24.03.2024;06:49;97,958;
24.03.2024;06:34;97,958;
24.03.2024;06:19;97,959;
24.03.2024;06:04;97,959;
24.03.2024;05:49;97,959;
24.03.2024;05:34;97,959;
24.03.2024;05:19;97,959;
24.03.2024;05:04;97,959;
24.03.2024;04:49;97,959;
24.03.2024;04:34;97,960;
24.03.2024;04:19;97,959;
24.03.2024;04:04;97,960;
24.03.2024;03:49;97,959;
24.03.2024;03:34;97,959;
24.03.2024;03:19;97,960;
24.03.2024;03:04;97,959;
24.03.2024;02:49;97,960;
24.03.2024;02:34;97,959;
24.03.2024;02:19;97,960;
24.03.2024;02:04;97,960;
24.03.2024;01:49;97,959;
24.03.2024;01:34;97,960;
24.03.2024;01:19;97,958;
24.03.2024;01:04;97,959;
24.03.2024;00:49;97,959;
24.03.2024;00:34;97,959;
24.03.2024;00:19;97,959;
24.03.2024;00:04;97,959;
23.03.2024;23:49;97,959;
23.03.2024;23:34;97,959;
23.03.2024;23:19;97,959;
23.03.2024;23:04;97,958;
23.03.2024;22:49;97,958;
23.03.2024;22:34;97,958;
23.03.2024;22:19;97,957;
23.03.2024;22:04;97,958;
23.03.2024;21:49;97,958;
23.03.2024;21:34;97,957;
23.03.2024;21:19;97,957;
23.03.2024;21:04;97,956;
23.03.2024;20:49;97,957;
23.03.2024;20:34;97,956;
23.03.2024;20:19;97,957;
23.03.2024;20:04;97,956;
23.03.2024;19:49;97,956;
23.03.2024;19:34;97,956;
23.03.2024;19:19;97,956;
23.03.2024;19:04;97,955;
23.03.2024;18:49;97,955;
23.03.2024;18:34;97,955;
23.03.2024;18:19;97,954;
23.03.2024;18:04;97,955;
23.03.2024;17:49;97,955;
23.03.2024;17:34;97,954;
23.03.2024;17:19;97,955;
23.03.2024;17:04;97,954;
23.03.2024;16:49;97,954;
23.03.2024;16:34;97,954;
23.03.2024;16:19;97,954;
23.03.2024;16:04;97,954;
23.03.2024;15:49;97,954;
23.03.2024;15:34;97,954;
23.03.2024;15:19;97,953;
23.03.2024;15:04;97,954;
23.03.2024;14:49;97,954;
23.03.2024;14:34;97,955;
23.03.2024;14:19;97,954;
23.03.2024;14:04;97,952;
23.03.2024;13:49;97,954;
23.03.2024;13:34;97,953;
23.03.2024;13:19;97,954;
23.03.2024;13:04;97,953;
23.03.2024;12:49;97,953;
23.03.2024;12:34;97,954;
23.03.2024;12:19;97,952;
23.03.2024;12:04;97,953;
23.03.2024;11:49;97,953;
23.03.2024;11:34;97,953;
23.03.2024;11:19;97,955;
23.03.2024;11:04;97,955;
23.03.2024;10:49;97,955;
23.03.2024;10:34;97,954;
23.03.2024;10:19;97,954;
23.03.2024;10:04;97,955;
23.03.2024;09:49;97,955;
23.03.2024;09:34;97,954;
23.03.2024;09:19;97,954;
23.03.2024;09:04;97,955;
23.03.2024;08:49;97,954;
23.03.2024;08:34;97,955;
23.03.2024;08:19;97,954;
23.03.2024;08:04;97,955;
23.03.2024;07:49;97,955;
23.03.2024;07:34;97,955;
23.03.2024;07:19;97,956;
23.03.2024;07:04;97,954;
23.03.2024;06:49;97,956;
23.03.2024;06:34;97,954;
23.03.2024;06:19;97,955;
23.03.2024;06:04;97,956;
23.03.2024;05:49;97,955;
23.03.2024;05:34;97,957;
23.03.2024;05:19;97,955;
23.03.2024;05:04;97,957;
23.03.2024;04:49;97,956;
23.03.2024;04:34;97,955;
23.03.2024;04:19;97,957;
23.03.2024;04:04;97,956;
23.03.2024;03:49;97,956;
23.03.2024;03:34;97,956;
23.03.2024;03:19;97,956;
23.03.2024;03:04;97,956;
23.03.2024;02:49;97,956;
23.03.2024;02:34;97,956;
23.03.2024;02:19;97,956;
23.03.2024;02:04;97,956;
23.03.2024;01:49;97,956;
23.03.2024;01:34;97,956;
23.03.2024;01:19;97,956;
23.03.2024;01:04;97,955;
23.03.2024;00:49;97,956;
23.03.2024;00:34;97,956;
23.03.2024;00:19;97,955;
23.03.2024;00:04;97,955;
22.03.2024;23:49;97,955;
22.03.2024;23:34;97,954;
22.03.2024;23:19;97,954;
22.03.2024;23:04;97,955;
22.03.2024;22:49;97,954;
22.03.2024;22:34;97,953;
22.03.2024;22:19;97,953;
22.03.2024;22:04;97,953;
22.03.2024;21:49;97,953;
22.03.2024;21:34;97,953;
22.03.2024;21:19;97,953;
22.03.2024;21:04;97,953;
22.03.2024;20:49;97,952;
22.03.2024;20:34;97,952;
22.03.2024;20:19;97,952;
22.03.2024;20:04;97,951;
22.03.2024;19:49;97,951;
22.03.2024;19:33;97,951;
22.03.2024;19:18;97,951;
22.03.2024;19:03;97,951;
22.03.2024;18:48;97,950;
22.03.2024;18:33;97,951;
22.03.2024;18:18;97,950;
22.03.2024;18:03;97,950;
22.03.2024;17:48;97,951;
22.03.2024;17:33;97,951;
22.03.2024;17:18;97,951;
22.03.2024;17:03;97,950;
22.03.2024;16:48;97,949;
22.03.2024;16:33;97,949;
22.03.2024;16:18;97,949;
22.03.2024;16:03;97,949;
22.03.2024;15:48;97,948;
22.03.2024;15:33;97,949;
22.03.2024;15:18;97,948;
22.03.2024;15:03;97,948;
22.03.2024;14:48;97,948;
22.03.2024;14:33;97,948;
22.03.2024;14:18;97,949;
22.03.2024;14:03;97,947;
22.03.2024;13:48;97,949;
22.03.2024;13:33;97,947;
22.03.2024;13:18;97,947;
22.03.2024;13:03;97,948;
22.03.2024;12:48;97,946;
22.03.2024;12:33;97,949;
22.03.2024;12:18;97,946;
22.03.2024;12:03;97,948;
22.03.2024;11:48;97,947;
22.03.2024;11:33;97,946;
22.03.2024;11:18;97,948;
22.03.2024;11:03;97,945;
22.03.2024;10:48;97,947;
22.03.2024;10:33;97,946;
22.03.2024;10:18;97,946;
22.03.2024;10:03;97,946;
22.03.2024;09:48;97,946;
22.03.2024;09:33;97,947;
22.03.2024;09:18;97,945;
22.03.2024;09:03;97,947;
22.03.2024;08:48;97,946;
22.03.2024;08:33;97,946;
22.03.2024;08:18;97,946;
22.03.2024;08:03;97,945;
22.03.2024;07:48;97,947;
22.03.2024;07:33;97,946;
22.03.2024;07:18;97,948;
22.03.2024;07:03;97,946;
22.03.2024;06:48;97,947;
22.03.2024;06:33;97,948;
22.03.2024;06:18;97,947;
22.03.2024;06:03;97,948;
22.03.2024;05:48;97,947;
22.03.2024;05:33;97,948;
22.03.2024;05:18;97,947;
22.03.2024;05:03;97,948;
22.03.2024;04:48;97,948;
22.03.2024;04:33;97,948;
22.03.2024;04:18;97,948;
22.03.2024;04:03;97,947;
22.03.2024;03:48;97,948;
22.03.2024;03:33;97,948;
22.03.2024;03:18;97,948;
22.03.2024;03:03;97,948;
22.03.2024;02:48;97,948;
22.03.2024;02:33;97,948;
22.03.2024;02:18;97,948;
22.03.2024;02:03;97,947;
22.03.2024;01:48;97,947;
22.03.2024;01:33;97,948;
22.03.2024;01:18;97,947;
22.03.2024;01:03;97,948;
22.03.2024;00:48;97,947;
22.03.2024;00:33;97,947;
22.03.2024;00:18;97,947;
22.03.2024;00:03;97,947;
21.03.2024;23:48;97,947;
21.03.2024;23:33;97,946;
21.03.2024;23:18;97,947;
21.03.2024;23:03;97,946;
21.03.2024;22:48;97,946;
21.03.2024;22:33;97,946;
21.03.2024;22:18;97,946;
21.03.2024;22:03;97,946;
21.03.2024;21:48;97,945;
21.03.2024;21:33;97,946;
21.03.2024;21:18;97,943;
21.03.2024;21:03;97,945;
21.03.2024;20:48;97,944;
21.03.2024;20:33;97,943;
21.03.2024;20:18;97,945;
21.03.2024;20:03;97,942;
21.03.2024;19:48;97,945;
21.03.2024;19:33;97,942;
21.03.2024;19:18;97,943;
21.03.2024;19:03;97,944;
21.03.2024;18:48;97,942;
21.03.2024;18:33;97,944;
21.03.2024;18:18;97,942;
21.03.2024;18:03;97,943;
21.03.2024;17:48;97,942;
21.03.2024;17:33;97,942;
21.03.2024;17:18;97,943;
21.03.2024;17:03;97,940;
21.03.2024;16:48;97,942;
21.03.2024;16:33;97,941;
21.03.2024;16:18;97,942;
21.03.2024;16:03;97,941;
21.03.2024;15:48;97,942;
21.03.2024;15:33;97,942;
21.03.2024;15:18;97,941;
21.03.2024;15:03;97,942;
21.03.2024;14:48;97,941;
21.03.2024;14:33;97,941;
21.03.2024;14:18;97,941;
21.03.2024;14:03;97,942;
21.03.2024;13:48;97,941;
21.03.2024;13:33;97,941;
21.03.2024;13:18;97,942;
21.03.2024;13:03;97,940;
21.03.2024;12:48;97,941;
21.03.2024;12:33;97,942;
21.03.2024;12:18;97,941;
21.03.2024;12:03;97,941;
21.03.2024;11:48;97,941;
21.03.2024;11:33;97,942;
21.03.2024;11:18;97,942;
21.03.2024;11:03;97,942;
21.03.2024;10:48;97,942;
21.03.2024;10:33;97,942;
21.03.2024;10:18;97,942;
21.03.2024;10:03;97,942;
21.03.2024;09:48;97,942;
21.03.2024;09:33;97,942;
21.03.2024;09:18;97,943;
21.03.2024;09:03;97,943;
21.03.2024;08:48;97,942;
21.03.2024;08:33;97,943;
21.03.2024;08:18;97,943;
21.03.2024;08:03;97,943;
21.03.2024;07:48;97,943;
21.03.2024;07:33;97,943;
21.03.2024;07:18;97,943;
21.03.2024;07:03;97,943;
21.03.2024;06:48;97,943;
21.03.2024;06:33;97,943;
21.03.2024;06:18;97,943;
21.03.2024;06:03;97,944;
21.03.2024;05:48;97,944;
21.03.2024;05:33;97,943;
21.03.2024;05:18;97,944;
21.03.2024;05:03;97,943;
21.03.2024;04:48;97,944;
21.03.2024;04:33;97,943;
21.03.2024;04:18;97,944;
21.03.2024;04:03;97,944;
21.03.2024;03:48;97,944;
21.03.2024;03:33;97,944;
21.03.2024;03:18;97,943;
21.03.2024;03:03;97,944;
21.03.2024;02:48;97,943;
21.03.2024;02:33;97,944;
21.03.2024;02:18;97,943;
21.03.2024;02:03;97,944;
21.03.2024;01:48;97,943;
21.03.2024;01:33;97,943;
21.03.2024;01:18;97,944;
21.03.2024;01:03;97,942;
21.03.2024;00:48;97,943;
21.03.2024;00:33;97,942;
21.03.2024;00:18;97,943;
21.03.2024;00:03;97,942;
20.03.2024;23:48;97,941;
20.03.2024;23:33;97,942;
20.03.2024;23:18;97,941;
20.03.2024;23:03;97,941;
20.03.2024;22:48;97,941;
20.03.2024;22:33;97,941;
20.03.2024;22:18;97,941;
20.03.2024;22:03;97,940;
20.03.2024;21:48;97,940;
20.03.2024;21:33;97,939;
20.03.2024;21:18;97,939;
20.03.2024;21:03;97,939;
20.03.2024;20:48;97,939;
20.03.2024;20:33;97,939;
20.03.2024;20:18;97,938;
20.03.2024;20:03;97,939;
20.03.2024;19:48;97,938;
20.03.2024;19:33;97,938;
20.03.2024;19:18;97,938;
20.03.2024;19:03;97,938;
20.03.2024;18:48;97,938;
20.03.2024;18:33;97,937;
20.03.2024;18:18;97,938;
20.03.2024;18:03;97,937;
20.03.2024;17:48;97,937;
20.03.2024;17:33;97,937;
20.03.2024;17:18;97,936;
20.03.2024;17:03;97,937;
20.03.2024;16:48;97,937;
20.03.2024;16:33;97,937;
20.03.2024;16:18;97,937;
20.03.2024;16:03;97,937;
20.03.2024;15:48;97,937;
20.03.2024;15:33;97,936;
20.03.2024;15:18;97,937;
20.03.2024;15:03;97,936;
20.03.2024;14:48;97,936;
20.03.2024;14:33;97,936;
20.03.2024;14:18;97,936;
20.03.2024;14:03;97,936;
20.03.2024;13:48;97,937;
20.03.2024;13:33;97,937;
20.03.2024;13:18;97,936;
20.03.2024;13:03;97,936;
20.03.2024;12:48;97,936;
20.03.2024;12:33;97,935;
20.03.2024;12:18;97,936;
20.03.2024;12:03;97,935;
20.03.2024;11:48;97,936;
20.03.2024;11:33;97,936;
20.03.2024;11:18;97,936;
20.03.2024;11:03;97,936;
20.03.2024;10:48;97,936;
20.03.2024;10:33;97,936;
20.03.2024;10:18;97,936;
20.03.2024;10:03;97,937;
20.03.2024;09:48;97,937;
20.03.2024;09:33;97,937;
20.03.2024;09:18;97,937;
20.03.2024;09:03;97,937;
20.03.2024;08:48;97,937;
20.03.2024;08:33;97,937;
20.03.2024;08:18;97,937;
20.03.2024;08:03;97,938;
20.03.2024;07:48;97,937;
20.03.2024;07:33;97,938;
20.03.2024;07:18;97,938;
20.03.2024;07:03;97,937;
20.03.2024;06:48;97,938;
20.03.2024;06:33;97,937;
20.03.2024;06:18;97,938;
20.03.2024;06:03;97,938;
20.03.2024;05:48;97,938;
20.03.2024;05:33;97,939;
20.03.2024;05:18;97,938;
20.03.2024;05:03;97,938;
20.03.2024;04:48;97,938;
20.03.2024;04:33;97,938;
20.03.2024;04:18;97,938;
20.03.2024;04:03;97,938;
20.03.2024;03:48;97,939;
20.03.2024;03:33;97,938;
20.03.2024;03:18;97,938;
20.03.2024;03:03;97,938;
20.03.2024;02:48;97,939;
20.03.2024;02:33;97,938;
20.03.2024;02:18;97,938;
20.03.2024;02:03;97,939;
20.03.2024;01:48;97,937;
20.03.2024;01:33;97,938;
20.03.2024;01:18;97,938;
20.03.2024;01:03;97,938;
20.03.2024;00:48;97,938;
20.03.2024;00:33;97,937;
20.03.2024;00:18;97,938;
20.03.2024;00:03;97,936;
19.03.2024;23:48;97,937;
19.03.2024;23:33;97,937;
19.03.2024;23:18;97,936;
19.03.2024;23:03;97,937;
19.03.2024;22:48;97,935;
19.03.2024;22:33;97,936;
19.03.2024;22:18;97,936;
19.03.2024;22:03;97,936;
19.03.2024;21:48;97,936;
19.03.2024;21:33;97,935;
19.03.2024;21:18;97,935;
19.03.2024;21:03;97,934;
19.03.2024;20:48;97,935;
19.03.2024;20:33;97,935;
19.03.2024;20:18;97,935;
19.03.2024;20:03;97,935;
19.03.2024;19:48;97,934;
19.03.2024;19:33;97,934;
19.03.2024;19:18;97,933;
19.03.2024;19:03;97,934;
19.03.2024;18:48;97,934;
19.03.2024;18:33;97,933;
19.03.2024;18:18;97,934;
19.03.2024;18:03;97,932;
19.03.2024;17:48;97,933;
19.03.2024;17:33;97,932;
19.03.2024;17:18;97,932;
19.03.2024;17:03;97,932;
19.03.2024;16:48;97,932;
19.03.2024;16:33;97,932;
19.03.2024;16:18;97,932;
19.03.2024;16:03;97,933;
19.03.2024;15:48;97,933;
19.03.2024;15:33;97,931;
19.03.2024;15:18;97,931;